WHDW 21-03

operational
NORAD ID: 68658 Int'l Des: 2026-076 Owner: ZXW Country: CN
LEOCIRCULARPOLAR

About WHDW 21-03

Description loading...

Live Position

Loading 3D Globe...

Upcoming Passes

Altitude History

Altitude vs Time

uPlot chart will show altitude changes over time

Two-Line Element Set

1 68658U 26076C 26101.90430791 -.00001422 00000-0 -13112-2 0 9998
2 68658 86.4895 67.2530 0006312 200.5961 159.4953 13.83321714 439
Epoch: Apr 11, 2026 • Age: 34 hours

Current Status

Altitude 950.2 km
Velocity 7.38 km/s
Sub-Earth Point 7.42°N, 68.02°W
Launch Date Apr 8, 2026
Age 5 days
Type other

Technical Details

Classification Payload
Mass 800.00 kg
Dry Mass 800.00 kg
Total Mass 800.00 kg
Length 3.00 m
Diameter 1.00 m
Span 10.00 m
Shape Box + 2 Pan
Manufacturer SECM
Bus Type Xingwang S
Phase Status In Orbit
Owner/State ZXW/CN

Large Constellations

Loading constellations...